Weather History for Durango, CO

Change the Weather History Date:

Monday, August 13, 2012

  Actual Average Record
Temperature  
Mean Temperature 71 °F 68 °F  
Max Temperature 88 °F 84 °F 93 °F (1970)
Min Temperature 54 °F 52 °F 40 °F (1985)
Degree Days  
Heating Degree Days 0 0  
Month to date heating degree days 0 0  
Since 1 June heating degree days 25 125  
Since 1 July heating degree days 0 10  
Cooling Degree Days 6 3  
Month to date cooling degree days 80 51  
Year to date cooling degree days 367 202  
Since 1 June cooling degree days 367 201  
Growing Degree Days 20 (Base 50)    
Moisture  
Dew Point 46 °F    
Average Humidity 46    
Maximum Humidity 72    
Minimum Humidity 20    
Precipitation  
Precipitation T in 0.06 in 0.44 in (1982)
Month to date precipitation 0.65 1.00  
Year to date precipitation 5.06 8.79  
Sea Level Pressure  
Sea Level Pressure 30.03 in    
Wind  
Wind Speed 7 mph (North)    
Max Wind Speed 21 mph    
Max Gust Speed 29 mph    
Visibility 10 miles    
Events Thunderstorm    
T = Trace of Precipitation, MM = Missing Value Source: NWS Daily Summary

Daily Weather History Graph

Daily Weather History Graph

Search for Another Location

Airport:

Trip Planner

Search our weather history database for the weather conditions in past years. The results will help you decide how hot, cold, wet, or windy it might be!

Date:

Astronomy

Aug. 13, 2012 Rise Set
Actual Time 6:26 AM MDT 8:04 PM MDT
Civil Twilight 5:58 AM MDT 8:32 PM MDT
Nautical Twilight 5:25 AM MDT 9:05 PM MDT
Astronomical Twilight 4:49 AM MDT 9:40 PM MDT
Moon 2:34 AM MDT (8/13) 5:16 PM MDT (8/13)
Length of Visible Light 14h 33m
Length of Day
13h 38m
Waning Crescent, 16% of the Moon is Illuminated
Aug 13
Waning Crescent
Aug 17
New
Aug 24
First Quarter
Aug 31
Full
Sep 8
Last Quarter

Hourly Weather History & Observations

Time (MDT) Temp. Dew Point Humidity Pressure Visibility Wind Dir Wind Speed Gust Speed Precip Events Conditions
12:53 AM 64.0 °F 50.0 °F 60% 30.05 in 10.0 mi Calm Calm - N/A   Scattered Clouds
1:53 AM 61.0 °F 48.9 °F 64% 30.06 in 10.0 mi North 4.6 mph - N/A   Clear
2:53 AM 59.0 °F 46.9 °F 64% 30.10 in 10.0 mi NNE 6.9 mph - N/A   Clear
3:53 AM 60.1 °F 46.9 °F 62% 30.09 in 10.0 mi NNE 6.9 mph - N/A   Clear
4:53 AM 55.9 °F 46.9 °F 72% 30.11 in 10.0 mi NNE 4.6 mph - N/A   Clear
5:53 AM 57.0 °F 46.9 °F 69% 30.10 in 10.0 mi North 3.5 mph - N/A   Clear
6:53 AM 57.0 °F 46.9 °F 69% 30.12 in 10.0 mi Calm Calm - N/A   Clear
7:53 AM 60.1 °F 48.0 °F 64% 30.12 in 10.0 mi Calm Calm - 0.00 in   Clear
8:53 AM 64.9 °F 48.0 °F 54% 30.12 in 10.0 mi Calm Calm - N/A   Clear
9:53 AM 69.1 °F 48.0 °F 47% 30.13 in 10.0 mi NW 8.1 mph - N/A   Mostly Cloudy
10:53 AM 72.0 °F 46.9 °F 41% 30.09 in 10.0 mi East 5.8 mph - 0.00 in   Clear
11:53 AM 77.0 °F 46.9 °F 34% 30.06 in 10.0 mi SE 10.4 mph 17.3 mph N/A   Clear
12:53 PM 80.1 °F 46.0 °F 30% 30.02 in 10.0 mi East 11.5 mph 16.1 mph N/A   Clear
1:53 PM 82.0 °F 46.0 °F 28% 29.99 in 10.0 mi Variable 4.6 mph - N/A   Clear
2:53 PM 84.9 °F 42.1 °F 22% 29.95 in 10.0 mi SSW 11.5 mph 21.9 mph N/A   Partly Cloudy
3:53 PM 86.0 °F 41.0 °F 20% 29.90 in 10.0 mi West 10.4 mph - N/A   Clear
4:37 PM 80.6 °F 44.6 °F 28% 30.18 in 10.0 mi North 17.3 mph 23.0 mph N/A   Clear
4:53 PM 84.0 °F 45.0 °F 25% 29.90 in 10.0 mi North 11.5 mph - N/A   Clear
5:53 PM 84.9 °F 39.0 °F 20% 29.88 in 10.0 mi Variable 4.6 mph 18.4 mph N/A   Scattered Clouds
6:53 PM 82.9 °F 41.0 °F 23% 29.88 in 10.0 mi WSW 13.8 mph - N/A   Partly Cloudy
7:53 PM 81.0 °F 39.9 °F 23% 29.88 in 10.0 mi SW 9.2 mph - N/A   Scattered Clouds
8:44 PM 75.2 °F 44.6 °F 34% 30.18 in 10.0 mi North 17.3 mph 27.6 mph N/A Thunderstorm Thunderstorm
8:53 PM 73.0 °F 46.9 °F 39% 29.92 in 10.0 mi North 11.5 mph - N/A Thunderstorm Thunderstorm
9:28 PM 73.4 °F 46.4 °F 38% 30.21 in 10.0 mi North 6.9 mph - N/A   Clear
9:53 PM 73.0 °F 46.9 °F 39% 29.96 in 10.0 mi WSW 5.8 mph - 0.00 in   Mostly Cloudy
10:53 PM 70.0 °F 48.9 °F 47% 29.94 in 10.0 mi East 4.6 mph - N/A   Partly Cloudy
11:53 PM 66.9 °F 50.0 °F 54% 29.95 in 10.0 mi ESE 3.5 mph - N/A   Clear